EW0401 Weather Reports


time (UTC)temp
C
wind
direction
speed
KPH
gust
KPH
rain 1hr
cm
rain 24hr
cm
rain mn
cm
humidity
%
barometer
mb
20260903084603 29 260 0.0 11.3 0.00 0.00 0.00 85 1014.0
20260903083107 28 0 1.6 11.3 0.00 0.00 0.00 85 1014.0
20260903081614 28 286 0.0 9.7 0.00 0.00 0.00 85 1014.0
20260903074601 28 0 1.6 16.1 0.00 0.00 0.00 85 1013.8
20260903073107 28 210 0.0 9.7 0.00 0.00 0.00 86 1013.6
20260903071605 28 0 0.0 3.2 0.00 0.00 0.00 86 1013.7
20260903064558 28 0 0.0 4.8 0.00 0.00 0.00 86 1014.2
20260903063108 28 0 0.0 3.2 0.00 0.00 0.00 86 1014.5
20260903061605 28 0 0.0 9.7 0.00 0.00 0.00 86 1014.6
20260903060111 28 0 0.0 3.2 0.00 0.00 0.00 86 1014.7
20260903054607 28 0 0.0 3.2 0.00 0.00 0.00 86 1014.9
20260903053101 28 0 0.0 4.8 0.00 0.00 0.00 86 1014.7
20260903051559 28 0 0.0 3.2 0.00 0.00 0.00 85 1014.9
20260903044600 28 170 0.0 1.6 0.00 0.00 0.00 85 1014.8
20260903043101 28 0 0.0 8.0 0.00 0.00 0.00 85 1015.1
20260903041604 29 0 0.0 4.8 0.00 0.00 0.00 86 1015.2
20260903040110 29 0 0.0 3.2 0.00 0.00 0.00 86 1015.4
20260903034607 29 0 0.0 3.2 0.00 0.00 0.00 85 1015.1
20260903033105 29 0 0.0 3.2 0.00 0.00 0.00 85 1015.1
20260903031611 29 0 0.0 3.2 0.00 0.00 0.00 85 1015.1
20260903030134 29 0 0.0 3.2 0.00 0.00 0.00 85 1015.1
20260903024603 29 0 0.0 6.4 0.00 0.00 0.00 85 1014.8
20260903023115 29 0 0.0 6.4 0.00 0.00 0.00 85 1014.6
20260903021601 29 0 0.0 4.8 0.00 0.00 0.00 85 1014.4
20260903020108 29 0 0.0 6.4 0.00 0.00 0.00 85 1014.1
20260903014620 29 209 0.0 9.7 0.00 0.00 0.00 85 1014.0
20260903013059 29 0 0.0 4.8 0.00 0.00 0.00 86 1014.3
20260903011605 29 0 0.0 6.4 0.00 0.00 0.00 85 1013.9
20260903010105 30 194 0.0 4.8 0.00 0.00 0.00 84 1013.4
20260903004605 30 0 0.0 11.3 0.00 0.00 0.00 84 1013.7
20260903003059 30 0 0.0 3.2 0.00 0.00 0.00 83 1014.0
20260903001609 30 0 0.0 6.4 0.00 0.00 0.00 82 1013.4
20260903000110 30 0 1.6 12.9 0.00 0.00 0.00 80 1012.8
20260902234559 31 167 0.0 11.3 0.00 0.00 0.00 79 1012.9
20260902233105 31 0 0.0 12.9 0.00 0.00 0.00 79 1013.1
20260902231603 32 208 1.6 12.9 0.00 0.00 0.00 76 1013.0
20260902230106 32 192 0.0 8.0 0.00 0.00 0.00 74 1013.0
20260902224601 33 186 1.6 9.7 0.00 0.10 0.00 72 1012.9
20260902223101 33 178 0.0 14.5 0.00 0.10 0.00 71 1013.1
20260902221618 33 196 0.0 12.9 0.00 0.10 0.00 74 1013.3
20260902220108 33 0 0.0 8.0 0.00 0.10 0.00 74 1013.1
20260902214601 33 192 0.0 11.3 0.00 0.28 0.00 73 1013.2
20260902213059 34 261 0.0 9.7 0.00 0.28 0.00 71 1013.3
20260902211601 34 0 0.0 9.7 0.00 0.28 0.00 72 1013.3
20260902210103 33 189 0.0 9.7 0.00 0.28 0.00 72 1013.4
20260902204616 33 0 0.0 6.4 0.00 0.28 0.00 72 1013.5
20260902203103 33 178 1.6 11.3 0.00 0.28 0.00 74 1013.6
20260902201603 33 0 0.0 11.3 0.00 0.28 0.00 74 1013.7
20260902200106 34 0 1.6 8.0 0.00 0.28 0.00 72 1014.0
20260902194625 35 182 1.6 11.3 0.00 0.41 0.00 62 1014.2
20260902193104 35 0 0.0 11.3 0.00 0.41 0.00 64 1014.2
20260902191608 34 252 0.0 9.7 0.00 0.41 0.00 67 1014.2
20260902190106 33 0 1.6 9.7 0.00 0.41 0.00 66 1014.3
20260902184605 33 253 3.2 9.7 0.00 0.41 0.00 67 1014.4
20260902183139 33 267 3.2 12.9 0.00 0.41 0.00 71 1014.6
20260902181610 33 0 0.0 8.0 0.00 0.41 0.00 74 1014.8
20260902180106 32 0 3.2 12.9 0.00 0.41 0.00 74 1015.1
20260902174606 32 274 1.6 11.3 0.00 0.41 0.00 74 1015.4
20260902173103 32 0 0.0 12.9 0.00 0.41 0.00 76 1015.5
20260902171626 32 257 3.2 12.9 0.00 0.41 0.00 77 1015.7
20260902170106 31 0 4.8 16.1 0.00 0.41 0.00 79 1015.8
20260902164633 31 236 1.6 9.7 0.00 0.41 0.00 79 1016.2
20260902163102 30 0 3.2 12.9 0.00 0.41 0.00 83 1016.2
20260902161607 30 0 1.6 6.4 0.00 0.41 0.00 84 1016.4
20260902160111 30 0 1.6 11.3 0.00 0.41 0.00 85 1016.4
20260902154609 29 0 0.0 6.4 0.00 0.41 0.00 86 1016.2
20260902153104 28 0 0.0 9.7 0.00 0.41 0.00 86 1016.0
20260902151603 28 0 0.0 9.7 0.00 0.41 0.00 86 1016.1
20260902144609 28 0 0.0 6.4 0.00 0.41 0.00 87 1015.7
20260902143058 27 0 0.0 4.8 0.00 0.41 0.00 86 1015.7
20260902141600 27 0 0.0 4.8 0.00 0.41 0.00 86 1015.7
20260902134605 27 0 0.0 3.2 0.00 0.41 0.00 85 1015.5
20260902133107 27 0 0.0 0.0 0.00 0.41 0.00 85 1015.6
20260902131610 27 222 0.0 3.2 0.00 0.41 0.00 84 1015.6
20260902130113 27 0 0.0 6.4 0.00 0.41 0.00 83 1015.4
20260902124601 27 0 1.6 8.0 0.00 0.41 0.00 84 1015.2
20260902123102 27 261 3.2 16.1 0.00 0.41 0.00 87 1014.7
20260902123033 27 264 3.2 14.5 0.00 0.41 0.00 87 1014.5
20260902123006 27 258 3.2 14.5 0.00 0.41 0.00 87 1014.4
20260902121601 27 259 1.6 12.9 0.00 0.41 0.00 88 1014.6
20260902120101 27 258 3.2 9.7 0.00 0.41 0.00 88 1013.7
20260902114619 27 259 1.6 12.9 0.00 0.41 0.00 88 1013.9
20260902113102 27 200 3.2 12.9 0.00 0.41 0.00 88 1014.0
20260902111604 27 273 3.2 11.3 0.00 0.41 0.00 87 1014.0
20260902110107 27 288 3.2 12.9 0.00 0.41 0.00 87 1014.0
20260902104602 27 0 3.2 12.9 0.00 0.41 0.00 87 1014.0
20260902103109 27 208 3.2 12.9 0.00 0.41 0.00 87 1014.0
20260902101600 27 227 1.6 11.3 0.00 0.41 0.00 87 1014.0
20260902094605 27 0 1.6 9.7 0.00 0.41 0.00 87 1013.9
20260902093059 27 0 3.2 11.3 0.00 0.41 0.00 87 1013.8
20260902091603 27 202 0.0 11.3 0.00 0.41 0.00 87 1013.7